Time,TemperatureF,DewpointF,PressureIn,WindDirection,WindDirectionDegrees,WindSpeedMPH,WindSpeedGustMPH,Humidity,HourlyPrecipIn,Conditions,Clouds,dailyrainin,SoftwareType,DateUTC
2013-09-17 00:23:00,44.0,39.0,30.36,South,190,0.0,0.0,84,0.00,,,0.00,,2013-09-17 05:23:00,
2013-09-17 00:52:00,44.0,40.0,30.36,South,190,0.0,0.0,86,0.00,,,0.00,,2013-09-17 05:52:00,
2013-09-17 01:12:00,44.0,40.0,30.37,South,190,0.0,0.0,87,0.00,,,0.00,,2013-09-17 06:12:00,
2013-09-17 01:22:00,44.0,40.0,30.37,South,190,0.0,0.0,87,0.00,,,0.00,,2013-09-17 06:22:00,
2013-09-17 01:52:00,43.0,39.0,30.37,South,190,0.0,0.0,87,0.00,,,0.00,,2013-09-17 06:52:00,
2013-09-17 02:23:00,42.0,38.0,30.37,South,190,0.0,0.0,87,0.00,,,0.00,,2013-09-17 07:23:00,
2013-09-17 02:52:00,42.0,39.0,30.36,South,190,0.0,0.0,88,0.00,,,0.00,,2013-09-17 07:52:00,
2013-09-17 03:22:00,42.0,39.0,30.35,SSE,164,0.0,0.0,88,0.00,,,0.00,,2013-09-17 08:22:00,
2013-09-17 03:52:00,41.0,38.0,30.36,SSE,164,0.0,0.0,88,0.00,,,0.00,,2013-09-17 08:52:00,
2013-09-17 04:22:00,41.0,38.0,30.35,SSE,164,0.0,0.0,88,0.00,,,0.00,,2013-09-17 09:22:00,
2013-09-17 04:53:00,41.0,38.0,30.35,SSE,164,0.0,0.0,89,0.00,,,0.00,,2013-09-17 09:53:00,
2013-09-17 05:23:00,41.0,38.0,30.35,SSE,164,0.0,0.0,90,0.00,,,0.00,,2013-09-17 10:23:00,
2013-09-17 05:53:00,41.0,38.0,30.34,SSE,164,0.0,0.0,90,0.00,,,0.00,,2013-09-17 10:53:00,
2013-09-17 06:22:00,40.0,37.0,30.34,SSE,164,0.0,0.0,90,0.00,,,0.00,,2013-09-17 11:22:00,
2013-09-17 06:52:00,40.0,37.0,30.34,SSE,164,0.0,0.0,90,0.00,,,0.00,,2013-09-17 11:52:00,
2013-09-17 07:12:00,40.0,37.0,30.34,SSE,164,0.0,0.0,90,0.00,,,0.00,,2013-09-17 12:12:00,
2013-09-17 07:22:00,40.0,37.0,30.34,SSE,165,0.0,0.0,90,0.00,,,0.00,,2013-09-17 12:22:00,
2013-09-17 07:52:00,40.0,37.0,30.34,SSW,193,0.0,1.0,90,0.00,,,0.00,,2013-09-17 12:52:00,
2013-09-17 08:22:00,41.0,39.0,30.33,SSW,208,0.0,0.0,91,0.00,,,0.00,,2013-09-17 13:22:00,
2013-09-17 08:52:00,43.0,41.0,30.33,West,267,0.0,0.0,92,0.00,,,0.00,,2013-09-17 13:52:00,
2013-09-17 09:22:00,46.0,44.0,30.32,NW,323,0.0,1.0,92,0.00,,,0.00,,2013-09-17 14:22:00,
2013-09-17 09:52:00,50.0,44.0,30.31,ESE,104,0.0,2.0,81,0.00,,,0.00,,2013-09-17 14:52:00,
2013-09-17 10:22:00,54.0,44.0,30.30,SSW,193,0.0,2.0,69,0.00,,,0.00,,2013-09-17 15:22:00,
2013-09-17 10:53:00,59.0,46.0,30.29,SE,130,0.0,5.0,62,0.00,,,0.00,,2013-09-17 15:53:00,
2013-09-17 11:23:00,63.0,47.0,30.28,South,177,0.0,3.0,55,0.00,,,0.00,,2013-09-17 16:23:00,
2013-09-17 11:54:00,65.0,46.0,30.27,South,177,0.0,3.0,51,0.00,,,0.00,,2013-09-17 16:54:00,
2013-09-17 12:23:00,66.0,47.0,30.25,SSW,193,0.0,3.0,50,0.00,,,0.00,,2013-09-17 17:23:00,
2013-09-17 12:53:00,66.0,46.0,30.24,ESE,112,0.0,1.0,48,0.00,,,0.00,,2013-09-17 17:53:00,
2013-09-17 13:22:00,67.0,47.0,30.24,East,101,0.0,1.0,48,0.00,,,0.00,,2013-09-17 18:22:00,
2013-09-17 13:52:00,68.0,47.0,30.22,East,100,1.0,3.0,47,0.00,,,0.00,,2013-09-17 18:52:00,
2013-09-17 14:22:00,67.0,46.0,30.21,SE,135,0.0,6.0,47,0.00,,,0.00,,2013-09-17 19:22:00,
2013-09-17 14:52:00,66.0,48.0,30.19,NNE,18,0.0,3.0,52,0.00,,,0.00,,2013-09-17 19:52:00,
2013-09-17 15:22:00,65.0,48.0,30.18,SSE,166,0.0,1.0,55,0.00,,,0.00,,2013-09-17 20:22:00,
2013-09-17 15:52:00,65.0,50.0,30.17,ESE,121,0.0,1.0,58,0.00,,,0.00,,2013-09-17 20:52:00,
2013-09-17 16:22:00,65.0,51.0,30.16,SSW,192,0.0,2.0,60,0.00,,,0.00,,2013-09-17 21:22:00,
2013-09-17 16:54:00,65.0,52.0,30.14,South,190,0.0,3.0,62,0.00,,,0.00,,2013-09-17 21:54:00,
2013-09-17 17:24:00,64.0,51.0,30.14,SE,127,0.0,3.0,63,0.00,,,0.00,,2013-09-17 22:24:00,
2013-09-17 17:53:00,63.0,51.0,30.14,SSE,151,0.0,3.0,65,0.00,,,0.00,,2013-09-17 22:53:00,
2013-09-17 18:22:00,63.0,52.0,30.13,SSW,194,0.0,3.0,67,0.00,,,0.00,,2013-09-17 23:22:00,
2013-09-17 18:52:00,62.0,52.0,30.12,SE,132,0.0,1.0,69,0.00,,,0.00,,2013-09-17 23:52:00,
2013-09-17 19:22:00,61.0,52.0,30.11,SE,135,0.0,0.0,71,0.00,,,0.00,,2013-09-18 00:22:00,
2013-09-17 19:52:00,61.0,53.0,30.11,ESE,114,0.0,2.0,75,0.00,,,0.00,,2013-09-18 00:52:00,
2013-09-17 20:21:00,60.0,53.0,30.10,SSE,161,0.0,1.0,77,0.00,,,0.00,,2013-09-18 01:21:00,
2013-09-17 20:52:00,59.0,53.0,30.10,SSE,163,0.0,1.0,80,0.00,,,0.00,,2013-09-18 01:52:00,
2013-09-17 21:22:00,58.0,54.0,30.09,SSE,163,0.0,1.0,85,0.00,,,0.00,,2013-09-18 02:22:00,
2013-09-17 21:43:00,58.0,54.0,30.09,ESE,120,0.0,1.0,86,0.00,,,0.00,,2013-09-18 02:43:00,
2013-09-17 21:52:00,57.0,53.0,30.08,ESE,121,0.0,0.0,88,0.00,,,0.00,,2013-09-18 02:52:00,
2013-09-17 22:23:00,57.0,54.0,30.08,SE,125,0.0,0.0,89,0.00,,,0.00,,2013-09-18 03:23:00,
2013-09-17 22:55:00,57.0,54.0,30.07,SW,225,0.0,0.0,90,0.00,,,0.00,,2013-09-18 03:55:00,
2013-09-17 23:14:00,57.0,54.0,30.07,SSW,200,0.0,0.0,90,0.00,,,0.00,,2013-09-18 04:14:00,
2013-09-17 23:24:00,57.0,54.0,30.06,South,190,0.0,0.0,90,0.00,,,0.00,,2013-09-18 04:24:00,
2013-09-17 23:54:00,57.0,54.0,30.06,South,172,0.0,0.0,90,0.00,,,0.00,,2013-09-18 04:54:00,